Regional Weather Roundup
Issued by NWS

Home | Current Version | Previous Version | Text Only | Print | Product List | Glossary On
Versions: 1 2 3 4 5 6 7 8 9 10 11 12 13 14 15 16 17 18 19 20 21 22 23 24 25 26 27 28 29 30 31 32 33 34 35 36 37 38 39 40 41 42 43 44 45 46 47 48 49 50
000
ASUS43 KMPX 301501
RWRMN
WEATHER ROUNDUP FOR MINNESOTA
NATIONAL WEATHER SERVICE TWIN CITIES/CHANHASSEN MN
1000 AM CDT TUE JUN 30 2015


NOTE: "FAIR" INDICATES FEW OR NO CLOUDS BELOW 12,000 FEET WITH NO
SIGNIFICANT WEATHER AND/OR OBSTRUCTIONS TO VISIBILITY. N/A MEANS
CURRENT SKY AND/OR WEATHER CONDITIONS ARE NOT AVAILABLE.

MNZ060>063-068>070-301600-
   Twin Cities Metro

CITY           SKY/WX    TMP DP  RH WIND       PRES   REMARKS
TWIN CITIES    PTSUNNY   69  61  75 N8        29.93S
ST PAUL        PTSUNNY   68  61  78 NE9       29.94R
CRYSTAL        MOSUNNY   70  60  70 NE8       29.92S
BLAINE         PTSUNNY   68  63  83 N8        29.94S
LAKEVILLE      MOSUNNY   68  61  77 NE5       29.93S
EDEN PRAIRIE   MOSUNNY   70  61  73 VRB3      29.92S
SOUTH ST PAUL  PTSUNNY   69  61  75 NE8       29.93S
LAKE ELMO      CLOUDY    64  61  88 NE6       29.95S
$$
MNZ001>005-007-008-013>017-022>024-027-028-301600-
   Northwest Minnesota

CITY           SKY/WX    TMP DP  RH WIND       PRES   REMARKS
BEMIDJI        SUNNY     64  55  73 E3        29.99R
HALLOCK        MOSUNNY   66  61  82 S3        29.97S
ROSEAU         SUNNY     66  57  72 E5        29.99S
WARROAD        SUNNY     63  55  77 E7        30.00S
THIEF RVR FALL SUNNY     64  57  77 SE6       29.99S
CROOKSTON      MOSUNNY   66  61  82 SE3       29.98S
FOSSTON        SUNNY     66  63  88 CALM      29.99R
DETROIT LAKES  SUNNY     68  59  73 CALM      29.99S
MOORHEAD       PTSUNNY   66  61  82 CALM      29.97S
PARK RAPIDS    MOSUNNY   69  57  65 E3        29.97S
MAHNOMEN       FAIR      66  60  82 CALM      29.98R
$$
MNZ006-009>011-018-025>026-301600-
   North Central Minnesota

CITY           SKY/WX    TMP DP  RH WIND       PRES   REMARKS
BAUDETTE       SUNNY     63  53  70 E6        29.99S
FLAG ISLAND    SUNNY     63  50  63 SE6       29.99S
INTL FALLS     SUNNY     62  49  62 SE8       29.99F
WASKISH        SUNNY     64  55  72 NE6       29.98F
BIG FORK       PTSUNNY   61  52  72 CALM      30.00S
LONGVILLE      SUNNY     64  57  77 CALM      29.97S
GRAND RAPIDS   CLOUDY    61  54  77 N3        29.99S
CRANE LAKE     MOSUNNY   61  48  63 NE5       30.02S
COOK           CLOUDY    59  52  77 CALM      30.00F
WALKER         PTSUNNY   62  57  81 E5        29.98S
$$
MNZ012-019>021-037-301600-
   Northeast Minnesota

CITY           SKY/WX    TMP DP  RH WIND       PRES   REMARKS
DULUTH         CLOUDY    57  50  77 SE8       29.98S
ELY            PTSUNNY   55  46  71 N5        30.00S
HIBBING        CLOUDY    60  51  72 NE7       29.99S
EVELETH        CLOUDY    59  50  72 NE3       30.00S
DULUTH HARBOR  CLOUDY    59  52  77 E13       30.00S
SILVER BAY     SUNNY     63  46  55 E5        29.97R
GRAND MARAIS     N/A     54  42  64 CALM      29.98R
G MARAIS ARPRT SUNNY     55  41  58 N8G16     29.98S
$$
MNZ029>031-032-039>041-046>048-054>057-064-301600-
   West Central Minnesota

CITY           SKY/WX    TMP DP  RH WIND       PRES   REMARKS
FERGUS FALLS   PTSUNNY   68  59  73 CALM      29.97R
WHEATON        MOSUNNY   63  61  94 E3        29.97S
MORRIS         MOSUNNY   70  61  73 E7        29.94F
ALEXANDRIA     SUNNY     70  57  63 E5        29.98S
ELBOW LAKE     FAIR      67  59  74 E3        29.96F
WADENA         SUNNY     66  59  77 CALM      29.97S
GLENWOOD       SUNNY     70  59  68 NE5       29.97F
APPLETON       MOSUNNY   70  61  73 E7        29.94F
BENSON         SUNNY     70  57  64 SE5       29.95F
ORTONVILLE     MOSUNNY   66  59  77 SE7       29.95S
MADISON        MOSUNNY   66  63  88 E6        29.95S
WILLMAR        FAIR      70  61  73 NE6       29.96F
$$
MNZ033>034-036-042>043-049>051-058-059-301600-
   Central Minnesota

CITY           SKY/WX    TMP DP  RH WIND       PRES   REMARKS
ST CLOUD       SUNNY     69  60  73 E3        29.95S
SAUK CENTRE    FAIR      68  57  68 CALM      29.97R
PAYNESVILLE    SUNNY     67  58  74 N3        29.97R
AITKIN         PTSUNNY   66  57  72 CALM      29.96R
PINE RIVER     SUNNY     64  55  72 CALM      30.00S
BRAINERD       SUNNY     66  57  72 VRB5      29.97R
STAPLES        SUNNY     66  57  72 CALM      29.97R
LONG PRAIRIE   FAIR      66  59  77 CALM      29.98R
LITTLE FALLS   SUNNY     68  55  64 CALM      29.96R
LITCHFIELD     SUNNY     70  63  78 CALM      29.96S
BUFFALO        MOSUNNY   69  60  72 CALM      29.96R
MAPLE LAKE     SUNNY     69  62  78 CALM      29.96R
$$
MNZ037-044-045-052-053-301600-
   East Central Minnesota

CITY           SKY/WX    TMP DP  RH WIND       PRES   REMARKS
PRINCETON      PTSUNNY   68  61  77 NE5       29.95S
MORA           CLOUDY    63  59  88 E5        29.98R
CAMBRIDGE      PTSUNNY   66  55  68 CALM      29.94R
RUSH CITY      PTSUNNY   64  60  86 CALM      29.95S
MOOSE LAKE     CLOUDY    61  59  94 NE7       29.95F
HINCKLEY       CLOUDY    64  59  82 NE6       29.96S
CLOQUET        CLOUDY    57  52  82 E7        29.98F
MCGREGOR       CLOUDY    63  57  82 E6        29.98R
$$
MNZ071>073-080-081-089-090-097-098-301600-
   Southwest Minnesota

CITY           SKY/WX    TMP DP  RH WIND       PRES   REMARKS
MONTEVIDEO     MOSUNNY   68  63  83 SE6       29.96S
GRANITE FALLS  MOSUNNY   67  60  80 E3        29.96F
CANBY          MOSUNNY   67  63  87 E3        29.96F
MARSHALL       SUNNY     66  61  82 E3          N/A
REDWOOD FALLS  SUNNY     69  61  75 NE5       29.94F
OLIVIA         SUNNY     68  59  73 NE5       29.94F
PIPESTONE      PTSUNNY   70  64  83 E5        29.95F
WINDOM         SUNNY     66  63  88 CALM      29.95F
WORTHINGTON    MOSUNNY   66  63  88 NE6       29.96S
JACKSON        MOSUNNY   68  64  88 NE7       29.95F
TRACY          SUNNY     67  63  87 NE3       29.96S
SLAYTON        PTSUNNY   66  64  93 CALM      29.97S
$$
MNZ065>067-074>077-082>085-091>093-301600-
   South Central Minnesota

CITY           SKY/WX    TMP DP  RH WIND       PRES   REMARKS
MANKATO        SUNNY     68  61  77 NE7       29.93F
NEW ULM        SUNNY     68  63  83 NE6       29.94S
ST JAMES       SUNNY     70  63  78 N5        29.95S
FAIRMONT       MOSUNNY   66  61  82 N7        29.94S
GLENCOE        SUNNY     70  63  79 NE5       29.94S
FARIBAULT      MOSUNNY   70  63  78 NE6       29.94R
OWATONNA       SUNNY     68  63  83 N3        29.93S
WASECA         SUNNY     70  63  78 N7        29.94F
ALBERT LEA     PTSUNNY   66  63  88 NW9       29.93S FOG
$$
MNZ078>079-086>088-094>096-301600-
   Southeast Minnesota

CITY           SKY/WX    TMP DP  RH WIND       PRES   REMARKS
ROCHESTER      PTSUNNY   68  62  81 NE7       29.93F
RED WING       CLOUDY    64  61  88 E5        29.92S
DODGE CENTER   SUNNY     68  63  83 NE5       29.93S
WINONA         CLOUDY    61  59  94 E6        29.92S FOG
AUSTIN         SUNNY     72  63  73 NE8       29.91F
PRESTON        CLOUDY    66  62  84 N7        29.92S
$$
ABBREVIATIONS USED IN REMARKS
   TC - TEMPERATURES IN CELSIUS
  WCI - WIND CHILL INDEX
   HX - HEAT INDEX
  VSB - VISIBILITY
$$


USA.gov is the U.S. government's official web portal to all federal, state and local government web resources and services.